Location: Klickitat County Star Party
(45.8642°N, 120.6771°W)
Time: 09:41:49
(UTC-07:00)

SO-50 - Pass Details

Date: 28 May 2019
Orbit: 586 x 700 km, 64.6° (Epoch: 18 June)

Event Time Altitude Azimuth Distance (km) Brightness Sun altitude
Rises 01:25:59 0° 327° (NNW) 3,089 ? -22.4°
Reaches altitude 10° 01:28:29 10° 335° (NNW) 2,162 ? -22.4°
Maximum altitude 01:33:08 40° 44° (NE) 1,019 ? -22.3°
Enters shadow 01:37:25 11° 113° (ESE) 2,019 ? -22.2°
